Regional Weather Roundup
Issued by NWS

Home | Current Version | Previous Version | Text Only | Print | Product List | Glossary On
Versions: 1 2 3 4 5 6 7 8 9 10 11 12 13 14 15 16 17 18 19 20 21 22 23 24 25 26 27 28
000
ASCA42 TJSJ 261610
RWRPR
PUERTO RICO/U.S. VIRGIN ISLANDS HOURLY WEATHER ROUNDUP
NATIONAL WEATHER SERVICE SAN JUAN PR
1200 PM AST TUE JUL 26 2016

PRZ001-004-261700-
PUERTO RICO

CITY           SKY/WX    TMP DP  RH WIND       PRES   REMARKS
SAN JUAN LMM   MOSUNNY   88  79  74 VRB6      29.99F HX 102
AGUADILLA      MOSUNNY   81  75  83 CALM      30.02F
CEIBA          SUNNY     88  79  74 E12G21    30.03F HX 102
$$

PRZ006-007-261700-
U.S. VIRGIN ISLANDS

CITY           SKY/WX    TMP DP  RH WIND       PRES   REMARKS
CHARLOTTE AMA  SUNNY     90  79  70 SE16      30.00  HX 105
CHRISTIANSTED  MOSUNNY   90  79  70 E16       30.01F HX 105
$$

HOURLY WEATHER ROUNDUP FOR THE NEWS MEDIA

CITY           SKY/WX    TMP DP  RH WIND       PRES   REMARKS
ORLANDO        MOSUNNY   88  73  61 S5        30.10S HX  95
NEW YORK       MOSUNNY   89  61  38 W14G23    29.91S
NEWARK         MOSUNNY   88  66  48 NW10      29.90F HX  90
CHICAGO        MOSUNNY   82  61  48 S5        30.06S
HARTFORD       MOSUNNY   88  66  48 W12       29.80F HX  90
BOSTON         MOSUNNY   90  59  35 NW13G21   29.78S
DALLAS         MOSUNNY   88  72  58 VRB3      29.97S HX  94
PHILADELPHIA   PTSUNNY   89  67  47 NW9       29.94S HX  92
LOS ANGELES    MOSUNNY   70  64  81 W12       29.91S
WASHINGTON DC  PTSUNNY   87  71  58 NW5       29.99R HX  93



USA.gov is the U.S. government's official web portal to all federal, state and local government web resources and services.